Time,TemperatureF,DewpointF,PressureIn,WindDirection,WindDirectionDegrees,WindSpeedMPH,WindSpeedGustMPH,Humidity,HourlyPrecipIn,Conditions,Clouds,dailyrainin,SoftwareType,DateUTC
2013-10-09 00:00:00,58.5,46.0,27.85,WSW,238,6.0,11.0,63,0.00,,---,0.00,VWS V14.01,2013-10-09 05:00:00,
2013-10-09 00:05:00,58.6,46.1,27.84,SSW,200,7.0,7.0,63,0.00,,---,0.00,VWS V14.01,2013-10-09 05:05:00,
2013-10-09 00:11:00,58.7,46.2,27.84,SW,234,0.0,2.0,63,0.00,,---,0.00,VWS V14.01,2013-10-09 05:11:00,
2013-10-09 00:16:00,58.4,45.9,27.84,SSE,163,3.0,7.0,63,0.00,,---,0.00,VWS V14.01,2013-10-09 05:16:00,
2013-10-09 00:21:00,58.3,46.2,27.85,South,178,3.0,4.0,64,0.00,,---,0.00,VWS V14.01,2013-10-09 05:21:00,
2013-10-09 00:26:00,58.3,46.2,27.85,SW,217,5.0,7.0,64,0.00,,---,0.00,VWS V14.01,2013-10-09 05:26:00,
2013-10-09 00:32:00,58.4,46.3,27.85,South,184,1.0,1.0,64,0.00,,---,0.00,VWS V14.01,2013-10-09 05:32:00,
2013-10-09 00:37:00,58.6,46.5,27.85,South,175,2.0,3.0,64,0.00,,---,0.00,VWS V14.01,2013-10-09 05:37:00,
2013-10-09 00:42:00,58.7,46.2,27.85,SW,217,6.0,12.0,63,0.00,,---,0.00,VWS V14.01,2013-10-09 05:42:00,
2013-10-09 00:47:00,58.9,46.3,27.85,SSE,162,4.0,10.0,63,0.00,,---,0.00,VWS V14.01,2013-10-09 05:47:00,
2013-10-09 00:52:00,58.9,46.3,27.85,SW,234,3.0,6.0,63,0.00,,---,0.00,VWS V14.01,2013-10-09 05:52:00,
2013-10-09 00:58:00,58.7,46.2,27.85,South,184,6.0,6.0,63,0.00,,---,0.00,VWS V14.01,2013-10-09 05:58:00,
2013-10-09 01:03:00,58.4,46.3,27.85,SSW,202,5.0,6.0,64,0.00,,---,0.00,VWS V14.01,2013-10-09 06:03:00,
2013-10-09 01:08:00,58.2,46.1,27.85,SSW,213,5.0,7.0,64,0.00,,---,0.00,VWS V14.01,2013-10-09 06:08:00,
2013-10-09 01:13:00,58.2,46.5,27.85,SW,234,2.0,8.0,65,0.00,,---,0.00,VWS V14.01,2013-10-09 06:13:00,
2013-10-09 01:18:00,58.1,46.4,27.86,SSW,200,3.0,7.0,65,0.00,,---,0.00,VWS V14.01,2013-10-09 06:18:00,
2013-10-09 01:24:00,57.9,46.6,27.86,West,261,5.0,5.0,66,0.00,,---,0.00,VWS V14.01,2013-10-09 06:24:00,
2013-10-09 01:29:00,57.5,46.2,27.86,SSW,202,3.0,3.0,66,0.00,,---,0.00,VWS V14.01,2013-10-09 06:29:00,
2013-10-09 01:34:00,57.5,46.2,27.86,SSE,157,2.0,3.0,66,0.00,,---,0.00,VWS V14.01,2013-10-09 06:34:00,
2013-10-09 01:39:00,57.4,46.2,27.86,SSE,168,3.0,11.0,66,0.00,,---,0.00,VWS V14.01,2013-10-09 06:39:00,
2013-10-09 01:44:00,57.4,46.5,27.86,SSW,210,2.0,3.0,67,0.00,,---,0.00,VWS V14.01,2013-10-09 06:44:00,
2013-10-09 01:49:00,57.1,46.3,27.86,South,178,7.0,8.0,67,0.00,,---,0.00,VWS V14.01,2013-10-09 06:49:00,
2013-10-09 01:54:00,57.0,46.2,27.86,SSW,194,4.0,7.0,67,0.00,,---,0.00,VWS V14.01,2013-10-09 06:54:00,
2013-10-09 02:00:00,57.0,46.2,27.86,ESE,111,3.0,6.0,67,0.00,,---,0.00,VWS V14.01,2013-10-09 07:00:00,
2013-10-09 02:05:00,56.9,46.1,27.86,SSW,200,3.0,4.0,67,0.00,,---,0.00,VWS V14.01,2013-10-09 07:05:00,
2013-10-09 02:10:00,56.8,46.4,27.86,SSW,197,7.0,10.0,68,0.00,,---,0.00,VWS V14.01,2013-10-09 07:10:00,
2013-10-09 02:15:00,56.7,46.3,27.86,South,180,1.0,8.0,68,0.00,,---,0.00,VWS V14.01,2013-10-09 07:15:00,
2013-10-09 02:20:00,56.6,46.6,27.86,SSW,203,2.0,7.0,69,0.00,,---,0.00,VWS V14.01,2013-10-09 07:20:00,
2013-10-09 02:25:00,56.3,46.3,27.86,WSW,253,1.0,4.0,69,0.00,,---,0.00,VWS V14.01,2013-10-09 07:25:00,
2013-10-09 02:31:00,56.2,46.2,27.86,South,173,0.0,0.0,69,0.00,,---,0.00,VWS V14.01,2013-10-09 07:31:00,
2013-10-09 02:36:00,56.2,46.6,27.87,SW,219,4.0,4.0,70,0.00,,---,0.00,VWS V14.01,2013-10-09 07:36:00,
2013-10-09 02:41:00,56.1,46.5,27.87,SSW,196,4.0,4.0,70,0.00,,---,0.00,VWS V14.01,2013-10-09 07:41:00,
2013-10-09 02:46:00,56.2,46.6,27.87,WSW,237,2.0,5.0,70,0.00,,---,0.00,VWS V14.01,2013-10-09 07:46:00,
2013-10-09 02:51:00,56.1,46.5,27.87,South,178,0.0,7.0,70,0.00,,---,0.00,VWS V14.01,2013-10-09 07:51:00,
2013-10-09 02:57:00,56.0,46.4,27.87,South,178,3.0,7.0,70,0.00,,---,0.00,VWS V14.01,2013-10-09 07:57:00,
2013-10-09 03:02:00,55.9,46.3,27.87,SW,232,1.0,6.0,70,0.00,,---,0.00,VWS V14.01,2013-10-09 08:02:00,
2013-10-09 03:07:00,55.9,46.3,27.87,SSW,198,3.0,3.0,70,0.00,,---,0.00,VWS V14.01,2013-10-09 08:07:00,
2013-10-09 03:12:00,56.0,46.4,27.87,SW,217,5.0,6.0,70,0.00,,---,0.00,VWS V14.01,2013-10-09 08:12:00,
2013-10-09 03:17:00,56.1,46.5,27.88,SSW,209,4.0,6.0,70,0.00,,---,0.00,VWS V14.01,2013-10-09 08:17:00,
2013-10-09 03:23:00,56.0,46.4,27.88,South,171,4.0,4.0,70,0.00,,---,0.00,VWS V14.01,2013-10-09 08:23:00,
2013-10-09 03:28:00,55.9,46.3,27.88,SSW,202,0.0,2.0,70,0.00,,---,0.00,VWS V14.01,2013-10-09 08:28:00,
2013-10-09 03:33:00,55.8,46.5,27.88,South,186,1.0,7.0,71,0.00,,---,0.00,VWS V14.01,2013-10-09 08:33:00,
2013-10-09 03:38:00,55.8,46.2,27.88,SW,227,5.0,10.0,70,0.00,,---,0.00,VWS V14.01,2013-10-09 08:38:00,
2013-10-09 03:43:00,55.8,46.5,27.88,SSW,200,7.0,7.0,71,0.00,,---,0.00,VWS V14.01,2013-10-09 08:43:00,
2013-10-09 03:49:00,55.7,46.5,27.88,SSW,213,3.0,3.0,71,0.00,,---,0.00,VWS V14.01,2013-10-09 08:49:00,
2013-10-09 03:54:00,55.7,46.5,27.88,SSW,198,4.0,8.0,71,0.00,,---,0.00,VWS V14.01,2013-10-09 08:54:00,
2013-10-09 03:59:00,55.7,46.5,27.88,SW,229,3.0,5.0,71,0.00,,---,0.00,VWS V14.01,2013-10-09 08:59:00,
2013-10-09 04:04:00,55.7,46.5,27.89,WSW,243,2.0,7.0,71,0.00,,---,0.00,VWS V14.01,2013-10-09 09:04:00,
2013-10-09 04:09:00,55.7,46.8,27.89,SW,227,3.0,4.0,72,0.00,,---,0.00,VWS V14.01,2013-10-09 09:09:00,
2013-10-09 04:14:00,55.6,46.7,27.89,SSW,212,2.0,5.0,72,0.00,,---,0.00,VWS V14.01,2013-10-09 09:14:00,
2013-10-09 04:19:00,55.5,46.6,27.89,South,182,2.0,8.0,72,0.00,,---,0.00,VWS V14.01,2013-10-09 09:19:00,
2013-10-09 04:25:00,55.5,46.6,27.89,SSW,200,2.0,4.0,72,0.00,,---,0.00,VWS V14.01,2013-10-09 09:25:00,
2013-10-09 04:30:00,55.6,46.7,27.89,West,260,2.0,5.0,72,0.00,,---,0.00,VWS V14.01,2013-10-09 09:30:00,
2013-10-09 04:35:00,55.5,46.6,27.89,South,186,1.0,5.0,72,0.00,,---,0.00,VWS V14.01,2013-10-09 09:35:00,
2013-10-09 04:40:00,55.4,46.5,27.89,South,176,3.0,8.0,72,0.00,,---,0.00,VWS V14.01,2013-10-09 09:40:00,
2013-10-09 04:45:00,55.3,46.4,27.89,South,172,1.0,6.0,72,0.00,,---,0.00,VWS V14.01,2013-10-09 09:45:00,
2013-10-09 04:50:00,55.1,46.6,27.89,SSW,210,3.0,3.0,73,0.00,,---,0.00,VWS V14.01,2013-10-09 09:50:00,
2013-10-09 04:55:00,55.1,46.6,27.89,South,190,3.0,3.0,73,0.00,,---,0.00,VWS V14.01,2013-10-09 09:55:00,
2013-10-09 05:01:00,55.0,46.5,27.89,South,169,2.0,4.0,73,0.00,,---,0.00,VWS V14.01,2013-10-09 10:01:00,
2013-10-09 05:06:00,54.8,46.3,27.89,South,190,2.0,6.0,73,0.00,,---,0.00,VWS V14.01,2013-10-09 10:06:00,
2013-10-09 05:11:00,54.8,46.7,27.89,South,171,7.0,7.0,74,0.00,,---,0.00,VWS V14.01,2013-10-09 10:11:00,
2013-10-09 05:16:00,54.8,46.7,27.89,SW,217,4.0,4.0,74,0.00,,---,0.00,VWS V14.01,2013-10-09 10:16:00,
2013-10-09 05:21:00,54.6,46.5,27.89,SW,215,1.0,4.0,74,0.00,,---,0.00,VWS V14.01,2013-10-09 10:21:00,
2013-10-09 05:26:00,54.5,46.4,27.89,SSW,205,3.0,6.0,74,0.00,,---,0.00,VWS V14.01,2013-10-09 10:26:00,
2013-10-09 05:32:00,54.4,46.7,27.89,WSW,248,5.0,10.0,75,0.00,,---,0.00,VWS V14.01,2013-10-09 10:32:00,
2013-10-09 05:37:00,54.6,46.5,27.89,SW,221,2.0,10.0,74,0.00,,---,0.00,VWS V14.01,2013-10-09 10:37:00,
2013-10-09 05:42:00,54.7,46.6,27.89,SSW,208,0.0,4.0,74,0.00,,---,0.00,VWS V14.01,2013-10-09 10:42:00,
2013-10-09 05:47:00,54.5,46.8,27.89,WSW,240,4.0,4.0,75,0.00,,---,0.00,VWS V14.01,2013-10-09 10:47:00,
2013-10-09 05:52:00,54.6,46.5,27.89,SSW,198,2.0,5.0,74,0.00,,---,0.00,VWS V14.01,2013-10-09 10:52:00,
2013-10-09 05:57:00,54.8,46.7,27.89,SW,221,3.0,6.0,74,0.00,,---,0.00,VWS V14.01,2013-10-09 10:57:00,
2013-10-09 06:03:00,54.8,46.7,27.90,SSW,200,3.0,7.0,74,0.00,,---,0.00,VWS V14.01,2013-10-09 11:03:00,
2013-10-09 06:08:00,54.6,46.8,27.90,SW,225,8.0,8.0,75,0.00,,---,0.00,VWS V14.01,2013-10-09 11:08:00,
2013-10-09 06:13:00,54.5,46.8,27.90,SW,230,3.0,5.0,75,0.00,,---,0.00,VWS V14.01,2013-10-09 11:13:00,
2013-10-09 06:18:00,54.5,46.8,27.90,SW,224,8.0,8.0,75,0.00,,---,0.00,VWS V14.01,2013-10-09 11:18:00,
2013-10-09 06:23:00,54.6,46.8,27.90,South,182,2.0,6.0,75,0.00,,---,0.00,VWS V14.01,2013-10-09 11:23:00,
2013-10-09 06:28:00,54.4,47.0,27.90,SW,230,1.0,2.0,76,0.00,,---,0.00,VWS V14.01,2013-10-09 11:28:00,
2013-10-09 06:33:00,54.3,46.9,27.90,SSW,205,5.0,10.0,76,0.00,,---,0.00,VWS V14.01,2013-10-09 11:33:00,
2013-10-09 06:38:00,54.4,47.0,27.90,SW,215,2.0,5.0,76,0.00,,---,0.00,VWS V14.01,2013-10-09 11:38:00,
2013-10-09 06:44:00,54.4,47.0,27.90,SW,214,3.0,3.0,76,0.00,,---,0.00,VWS V14.01,2013-10-09 11:44:00,
2013-10-09 06:49:00,54.4,47.0,27.90,SW,221,3.0,4.0,76,0.00,,---,0.00,VWS V14.01,2013-10-09 11:49:00,
2013-10-09 06:54:00,54.1,46.7,27.90,SW,227,3.0,6.0,76,0.00,,---,0.00,VWS V14.01,2013-10-09 11:54:00,
2013-10-09 07:00:00,54.0,46.6,27.90,SSW,203,0.0,5.0,76,0.00,,---,0.00,VWS V14.01,2013-10-09 12:00:00,
2013-10-09 07:04:00,54.1,46.7,27.90,SW,225,3.0,5.0,76,0.00,,---,0.00,VWS V14.01,2013-10-09 12:04:00,
2013-10-09 07:09:00,54.1,46.7,27.90,SW,217,0.0,3.0,76,0.00,,---,0.00,VWS V14.01,2013-10-09 12:09:00,
2013-10-09 07:15:00,53.9,46.9,27.90,WSW,242,2.0,2.0,77,0.00,,---,0.00,VWS V14.01,2013-10-09 12:15:00,
2013-10-09 07:20:00,53.7,46.7,27.91,SSW,209,5.0,5.0,77,0.00,,---,0.00,VWS V14.01,2013-10-09 12:20:00,
2013-10-09 07:25:00,53.4,46.7,27.91,SW,234,3.0,5.0,78,0.00,,---,0.00,VWS V14.01,2013-10-09 12:25:00,
2013-10-09 07:30:00,53.3,46.6,27.91,WSW,237,2.0,3.0,78,0.00,,---,0.00,VWS V14.01,2013-10-09 12:30:00,
2013-10-09 07:35:00,53.4,46.7,27.91,South,190,2.0,3.0,78,0.00,,---,0.00,VWS V14.01,2013-10-09 12:35:00,
2013-10-09 07:40:00,53.4,46.7,27.91,SSW,198,0.0,3.0,78,0.00,,---,0.00,VWS V14.01,2013-10-09 12:40:00,
2013-10-09 07:46:00,53.3,46.6,27.91,SW,215,4.0,5.0,78,0.00,,---,0.00,VWS V14.01,2013-10-09 12:46:00,
2013-10-09 07:51:00,53.6,46.9,27.92,SW,215,5.0,5.0,78,0.00,,---,0.00,VWS V14.01,2013-10-09 12:51:00,
2013-10-09 07:56:00,53.7,46.7,27.92,WSW,240,4.0,10.0,77,0.00,,---,0.00,VWS V14.01,2013-10-09 12:56:00,
2013-10-09 08:01:00,53.9,46.9,27.92,SW,225,5.0,6.0,77,0.00,,---,0.00,VWS V14.01,2013-10-09 13:01:00,
2013-10-09 08:06:00,54.2,47.2,27.92,SW,229,7.0,8.0,77,0.00,,---,0.00,VWS V14.01,2013-10-09 13:06:00,
2013-10-09 08:11:00,54.5,47.5,27.92,SSW,207,1.0,5.0,77,0.00,,---,0.00,VWS V14.01,2013-10-09 13:11:00,
2013-10-09 08:16:00,54.6,47.2,27.92,SW,216,1.0,8.0,76,0.00,,---,0.00,VWS V14.01,2013-10-09 13:16:00,
2013-10-09 08:21:00,54.6,47.2,27.92,WSW,243,3.0,7.0,76,0.00,,---,0.00,VWS V14.01,2013-10-09 13:21:00,
2013-10-09 08:27:00,54.8,47.4,27.92,SW,232,2.0,2.0,76,0.00,,---,0.00,VWS V14.01,2013-10-09 13:27:00,
2013-10-09 08:32:00,55.0,47.6,27.93,SSW,200,4.0,7.0,76,0.00,,---,0.00,VWS V14.01,2013-10-09 13:32:00,
2013-10-09 08:37:00,55.1,47.3,27.93,SW,232,2.0,4.0,75,0.00,,---,0.00,VWS V14.01,2013-10-09 13:37:00,
2013-10-09 08:42:00,55.4,47.6,27.93,SW,229,2.0,7.0,75,0.00,,---,0.00,VWS V14.01,2013-10-09 13:42:00,
2013-10-09 08:47:00,55.9,47.7,27.93,SW,221,6.0,8.0,74,0.00,,---,0.00,VWS V14.01,2013-10-09 13:47:00,
2013-10-09 08:52:00,56.2,48.0,27.93,SW,222,6.0,6.0,74,0.00,,---,0.00,VWS V14.01,2013-10-09 13:52:00,
2013-10-09 08:58:00,56.6,48.1,27.93,SW,216,7.0,7.0,73,0.00,,---,0.00,VWS V14.01,2013-10-09 13:58:00,
2013-10-09 09:03:00,57.0,48.1,27.94,SW,228,4.0,6.0,72,0.00,,---,0.00,VWS V14.01,2013-10-09 14:03:00,
2013-10-09 09:08:00,57.5,48.6,27.94,SW,234,0.0,4.0,72,0.00,,---,0.00,VWS V14.01,2013-10-09 14:08:00,
2013-10-09 09:13:00,57.8,48.8,27.94,SSW,209,7.0,8.0,72,0.00,,---,0.00,VWS V14.01,2013-10-09 14:13:00,
2013-10-09 09:19:00,58.0,48.7,27.94,SSW,205,3.0,3.0,71,0.00,,---,0.00,VWS V14.01,2013-10-09 14:19:00,
2013-10-09 09:24:00,58.4,49.0,27.94,SW,214,3.0,7.0,71,0.00,,---,0.00,VWS V14.01,2013-10-09 14:24:00,
2013-10-09 09:29:00,59.0,49.2,27.94,SSW,200,3.0,5.0,70,0.00,,---,0.00,VWS V14.01,2013-10-09 14:29:00,
2013-10-09 09:34:00,59.2,48.7,27.94,SSW,198,2.0,9.0,68,0.00,,---,0.00,VWS V14.01,2013-10-09 14:34:00,
2013-10-09 09:39:00,59.2,49.0,27.94,SW,225,5.0,10.0,69,0.00,,---,0.00,VWS V14.01,2013-10-09 14:39:00,
2013-10-09 09:44:00,59.3,49.1,27.94,SSW,209,4.0,8.0,69,0.00,,---,0.00,VWS V14.01,2013-10-09 14:44:00,
2013-10-09 09:49:00,59.9,49.3,27.94,WSW,240,0.0,7.0,68,0.00,,---,0.00,VWS V14.01,2013-10-09 14:49:00,
2013-10-09 09:54:00,60.2,49.6,27.94,SSW,211,5.0,10.0,68,0.00,,---,0.00,VWS V14.01,2013-10-09 14:54:00,
2013-10-09 10:00:00,60.2,49.6,27.94,WSW,249,2.0,8.0,68,0.00,,---,0.00,VWS V14.01,2013-10-09 15:00:00,
2013-10-09 10:05:00,60.7,49.7,27.95,SE,125,4.0,9.0,67,0.00,,---,0.00,VWS V14.01,2013-10-09 15:05:00,
2013-10-09 10:10:00,61.1,49.7,27.95,SSW,211,3.0,5.0,66,0.00,,---,0.00,VWS V14.01,2013-10-09 15:10:00,
2013-10-09 10:15:00,61.5,50.0,27.95,West,277,1.0,6.0,66,0.00,,---,0.00,VWS V14.01,2013-10-09 15:15:00,
2013-10-09 10:20:00,62.2,50.3,27.95,SSW,213,1.0,7.0,65,0.00,,---,0.00,VWS V14.01,2013-10-09 15:20:00,
2013-10-09 10:26:00,62.7,49.9,27.95,WSW,242,3.0,7.0,63,0.00,,---,0.00,VWS V14.01,2013-10-09 15:26:00,
2013-10-09 10:31:00,62.6,49.8,27.95,West,265,2.0,2.0,63,0.00,,---,0.00,VWS V14.01,2013-10-09 15:31:00,
2013-10-09 10:36:00,62.6,49.8,27.95,WSW,239,0.0,4.0,63,0.00,,---,0.00,VWS V14.01,2013-10-09 15:36:00,
2013-10-09 10:41:00,62.6,49.8,27.95,SSW,207,4.0,9.0,63,0.00,,---,0.00,VWS V14.01,2013-10-09 15:41:00,
2013-10-09 10:46:00,62.7,50.4,27.95,West,262,5.0,9.0,64,0.00,,---,0.00,VWS V14.01,2013-10-09 15:46:00,
2013-10-09 10:51:00,63.1,50.3,27.96,NW,317,4.0,5.0,63,0.00,,---,0.00,VWS V14.01,2013-10-09 15:51:00,
2013-10-09 10:57:00,63.6,50.4,27.96,West,270,0.0,6.0,62,0.00,,---,0.00,VWS V14.01,2013-10-09 15:57:00,
2013-10-09 11:02:00,64.0,50.7,27.96,West,267,3.0,3.0,62,0.00,,---,0.00,VWS V14.01,2013-10-09 16:02:00,
2013-10-09 11:07:00,64.4,51.1,27.96,West,276,4.0,4.0,62,0.00,,---,0.00,VWS V14.01,2013-10-09 16:07:00,
2013-10-09 11:12:00,64.7,50.5,27.96,SW,235,2.0,4.0,60,0.00,,---,0.00,VWS V14.01,2013-10-09 16:12:00,
2013-10-09 11:17:00,64.8,50.6,27.96,SW,230,0.0,1.0,60,0.00,,---,0.00,VWS V14.01,2013-10-09 16:17:00,
2013-10-09 11:22:00,64.8,50.6,27.96,SSW,205,4.0,4.0,60,0.00,,---,0.00,VWS V14.01,2013-10-09 16:22:00,
2013-10-09 11:27:00,65.2,51.4,27.96,SSW,205,0.0,2.0,61,0.00,,---,0.00,VWS V14.01,2013-10-09 16:27:00,
2013-10-09 11:32:00,65.3,50.6,27.96,SSW,205,1.0,3.0,59,0.00,,---,0.00,VWS V14.01,2013-10-09 16:32:00,
2013-10-09 11:38:00,65.2,50.5,27.96,SSW,205,0.0,2.0,59,0.00,,---,0.00,VWS V14.01,2013-10-09 16:38:00,
2013-10-09 11:43:00,65.0,50.3,27.96,SSE,155,1.0,6.0,59,0.00,,---,0.00,VWS V14.01,2013-10-09 16:43:00,
2013-10-09 11:48:00,65.3,51.1,27.96,SSW,196,2.0,3.0,60,0.00,,---,0.00,VWS V14.01,2013-10-09 16:48:00,
2013-10-09 11:53:00,65.6,50.9,27.96,SW,217,4.0,7.0,59,0.00,,---,0.00,VWS V14.01,2013-10-09 16:53:00,
2013-10-09 11:58:00,65.8,51.1,27.96,SW,233,3.0,3.0,59,0.00,,---,0.00,VWS V14.01,2013-10-09 16:58:00,
2013-10-09 12:03:00,66.2,51.5,27.96,SW,221,3.0,4.0,59,0.00,,---,0.00,VWS V14.01,2013-10-09 17:03:00,
2013-10-09 12:08:00,66.3,51.6,27.96,South,185,0.0,3.0,59,0.00,,---,0.00,VWS V14.01,2013-10-09 17:08:00,
2013-10-09 12:14:00,67.0,51.8,27.96,South,188,0.0,0.0,58,0.00,,---,0.00,VWS V14.01,2013-10-09 17:14:00,
2013-10-09 12:19:00,67.8,51.5,27.96,WSW,254,2.0,3.0,56,0.00,,---,0.00,VWS V14.01,2013-10-09 17:19:00,
2013-10-09 12:24:00,67.6,51.4,27.96,SSW,205,3.0,3.0,56,0.00,,---,0.00,VWS V14.01,2013-10-09 17:24:00,
2013-10-09 12:29:00,67.3,51.6,27.96,South,176,2.0,3.0,57,0.00,,---,0.00,VWS V14.01,2013-10-09 17:29:00,
2013-10-09 12:34:00,68.0,51.7,27.95,SW,226,0.0,1.0,56,0.00,,---,0.00,VWS V14.01,2013-10-09 17:34:00,
2013-10-09 12:39:00,68.1,51.3,27.95,SW,221,6.0,6.0,55,0.00,,---,0.00,VWS V14.01,2013-10-09 17:39:00,
2013-10-09 12:44:00,68.1,52.3,27.95,SW,216,2.0,4.0,57,0.00,,---,0.00,VWS V14.01,2013-10-09 17:44:00,
2013-10-09 12:50:00,68.8,52.5,27.96,SW,234,2.0,4.0,56,0.00,,---,0.00,VWS V14.01,2013-10-09 17:50:00,
2013-10-09 12:55:00,69.1,52.8,27.96,SSW,196,2.0,2.0,56,0.00,,---,0.00,VWS V14.01,2013-10-09 17:55:00,
2013-10-09 13:00:00,69.4,52.5,27.96,SSE,148,1.0,2.0,55,0.00,,---,0.00,VWS V14.01,2013-10-09 18:00:00,
2013-10-09 13:05:00,69.5,53.1,27.96,SW,219,6.0,7.0,56,0.00,,---,0.00,VWS V14.01,2013-10-09 18:05:00,
2013-10-09 13:10:00,69.5,52.2,27.96,South,187,1.0,3.0,54,0.00,,---,0.00,VWS V14.01,2013-10-09 18:10:00,
2013-10-09 13:15:00,69.7,52.8,27.96,SSW,195,2.0,3.0,55,0.00,,---,0.00,VWS V14.01,2013-10-09 18:15:00,
2013-10-09 13:20:00,69.8,51.9,27.95,SSE,166,5.0,7.0,53,0.00,,---,0.00,VWS V14.01,2013-10-09 18:20:00,
2013-10-09 13:25:00,69.5,51.6,27.95,SSE,166,3.0,7.0,53,0.00,,---,0.00,VWS V14.01,2013-10-09 18:25:00,
2013-10-09 13:31:00,69.2,51.4,27.95,SW,215,2.0,3.0,53,0.00,,---,0.00,VWS V14.01,2013-10-09 18:31:00,
2013-10-09 13:36:00,69.3,52.0,27.95,SW,223,7.0,7.0,54,0.00,,---,0.00,VWS V14.01,2013-10-09 18:36:00,
2013-10-09 13:41:00,69.2,51.9,27.95,SSW,200,1.0,1.0,54,0.00,,---,0.00,VWS V14.01,2013-10-09 18:41:00,
2013-10-09 13:46:00,69.5,52.2,27.95,SW,219,3.0,6.0,54,0.00,,---,0.00,VWS V14.01,2013-10-09 18:46:00,
2013-10-09 13:51:00,70.3,52.4,27.95,SSW,199,1.0,5.0,53,0.00,,---,0.00,VWS V14.01,2013-10-09 18:51:00,
2013-10-09 13:56:00,70.8,51.8,27.95,WSW,244,3.0,6.0,51,0.00,,---,0.00,VWS V14.01,2013-10-09 18:56:00,
2013-10-09 14:01:00,70.6,52.1,27.95,SSW,197,0.0,4.0,52,0.00,,---,0.00,VWS V14.01,2013-10-09 19:01:00,
2013-10-09 14:07:00,70.5,52.0,27.96,SW,215,2.0,4.0,52,0.00,,---,0.00,VWS V14.01,2013-10-09 19:07:00,
2013-10-09 14:12:00,70.6,52.1,27.96,West,273,1.0,5.0,52,0.00,,---,0.00,VWS V14.01,2013-10-09 19:12:00,
2013-10-09 14:17:00,70.1,51.7,27.96,SW,236,5.0,7.0,52,0.00,,---,0.00,VWS V14.01,2013-10-09 19:17:00,
2013-10-09 14:22:00,69.8,51.9,27.96,SW,236,2.0,2.0,53,0.00,,---,0.00,VWS V14.01,2013-10-09 19:22:00,
2013-10-09 14:27:00,70.3,51.9,27.96,SW,217,1.0,11.0,52,0.00,,---,0.00,VWS V14.01,2013-10-09 19:27:00,
2013-10-09 14:32:00,70.4,52.0,27.96,South,190,2.0,2.0,52,0.00,,---,0.00,VWS V14.01,2013-10-09 19:32:00,
2013-10-09 14:37:00,71.0,53.0,27.96,West,281,2.0,4.0,53,0.00,,---,0.00,VWS V14.01,2013-10-09 19:37:00,
2013-10-09 14:42:00,71.4,52.3,27.96,SW,236,2.0,5.0,51,0.00,,---,0.00,VWS V14.01,2013-10-09 19:42:00,
2013-10-09 14:47:00,71.8,52.7,27.95,SW,220,0.0,5.0,51,0.00,,---,0.00,VWS V14.01,2013-10-09 19:47:00,
2013-10-09 14:53:00,72.0,52.9,27.95,SSW,195,5.0,6.0,51,0.00,,---,0.00,VWS V14.01,2013-10-09 19:53:00,
2013-10-09 14:58:00,71.5,54.0,27.95,SSW,192,3.0,4.0,54,0.00,,---,0.00,VWS V14.01,2013-10-09 19:58:00,
2013-10-09 15:03:00,70.4,53.5,27.96,South,170,4.0,6.0,55,0.00,,---,0.00,VWS V14.01,2013-10-09 20:03:00,
2013-10-09 15:08:00,69.7,53.8,27.96,SSE,167,3.0,4.0,57,0.00,,---,0.00,VWS V14.01,2013-10-09 20:08:00,
2013-10-09 15:13:00,69.5,54.1,27.96,South,188,1.0,4.0,58,0.00,,---,0.00,VWS V14.01,2013-10-09 20:13:00,
2013-10-09 15:19:00,69.9,54.5,27.96,South,181,2.0,3.0,58,0.00,,---,0.00,VWS V14.01,2013-10-09 20:19:00,
2013-10-09 15:24:00,70.1,54.2,27.96,South,175,2.0,7.0,57,0.00,,---,0.00,VWS V14.01,2013-10-09 20:24:00,
2013-10-09 15:29:00,70.0,53.6,27.96,South,191,3.0,4.0,56,0.00,,---,0.00,VWS V14.01,2013-10-09 20:29:00,
2013-10-09 15:34:00,69.8,53.9,27.96,SSE,156,0.0,3.0,57,0.00,,---,0.00,VWS V14.01,2013-10-09 20:34:00,
2013-10-09 15:39:00,69.8,53.9,27.96,SSE,161,8.0,8.0,57,0.00,,---,0.00,VWS V14.01,2013-10-09 20:39:00,
2013-10-09 15:44:00,69.2,53.8,27.96,South,171,1.0,2.0,58,0.00,,---,0.00,VWS V14.01,2013-10-09 20:44:00,
2013-10-09 15:50:00,69.2,54.3,27.96,East,82,1.0,3.0,59,0.00,,---,0.00,VWS V14.01,2013-10-09 20:50:00,
2013-10-09 15:55:00,69.4,53.0,27.96,SSE,150,4.0,9.0,56,0.00,,---,0.00,VWS V14.01,2013-10-09 20:55:00,
2013-10-09 16:00:00,68.9,53.1,27.96,SSE,167,3.0,5.0,57,0.00,,---,0.00,VWS V14.01,2013-10-09 21:00:00,
2013-10-09 16:06:00,68.6,52.8,27.97,SSW,209,2.0,5.0,57,0.00,,---,0.00,VWS V14.01,2013-10-09 21:06:00,
2013-10-09 16:11:00,68.3,52.5,27.97,South,170,7.0,7.0,57,0.00,,---,0.00,VWS V14.01,2013-10-09 21:11:00,
2013-10-09 16:16:00,68.0,53.2,27.97,SSE,158,3.0,3.0,59,0.00,,---,0.00,VWS V14.01,2013-10-09 21:16:00,
2013-10-09 16:21:00,67.9,52.6,27.97,SSW,196,3.0,4.0,58,0.00,,---,0.00,VWS V14.01,2013-10-09 21:21:00,
2013-10-09 16:26:00,67.7,52.4,27.97,South,181,2.0,9.0,58,0.00,,---,0.00,VWS V14.01,2013-10-09 21:26:00,
2013-10-09 16:31:00,67.4,52.6,27.97,South,178,8.0,8.0,59,0.00,,---,0.00,VWS V14.01,2013-10-09 21:31:00,
2013-10-09 16:37:00,67.0,52.2,27.97,South,183,0.0,2.0,59,0.00,,---,0.00,VWS V14.01,2013-10-09 21:37:00,
2013-10-09 16:42:00,66.8,52.0,27.97,South,188,3.0,3.0,59,0.00,,---,0.00,VWS V14.01,2013-10-09 21:42:00,
2013-10-09 16:47:00,66.6,52.3,27.97,SSE,160,1.0,3.0,60,0.00,,---,0.00,VWS V14.01,2013-10-09 21:47:00,
2013-10-09 16:52:00,66.5,52.2,27.97,SSE,159,4.0,7.0,60,0.00,,---,0.00,VWS V14.01,2013-10-09 21:52:00,
2013-10-09 16:57:00,66.3,52.0,27.97,South,173,0.0,4.0,60,0.00,,---,0.00,VWS V14.01,2013-10-09 21:57:00,
2013-10-09 17:02:00,66.2,52.4,27.97,SSW,194,2.0,5.0,61,0.00,,---,0.00,VWS V14.01,2013-10-09 22:02:00,
2013-10-09 17:07:00,66.1,52.3,27.97,SSE,154,1.0,1.0,61,0.00,,---,0.00,VWS V14.01,2013-10-09 22:07:00,
2013-10-09 17:12:00,66.0,52.6,27.97,SSE,167,1.0,3.0,62,0.00,,---,0.00,VWS V14.01,2013-10-09 22:12:00,
2013-10-09 17:17:00,65.8,52.0,27.98,South,176,0.0,3.0,61,0.00,,---,0.00,VWS V14.01,2013-10-09 22:17:00,
2013-10-09 17:23:00,65.7,52.3,27.98,SSW,192,2.0,3.0,62,0.00,,---,0.00,VWS V14.01,2013-10-09 22:23:00,
2013-10-09 17:28:00,65.5,52.6,27.98,South,180,2.0,2.0,63,0.00,,---,0.00,VWS V14.01,2013-10-09 22:28:00,
2013-10-09 17:33:00,65.4,52.5,27.98,South,173,0.0,0.0,63,0.00,,---,0.00,VWS V14.01,2013-10-09 22:33:00,
2013-10-09 17:38:00,65.2,52.3,27.98,SSE,163,0.0,1.0,63,0.00,,---,0.00,VWS V14.01,2013-10-09 22:38:00,
2013-10-09 17:43:00,64.9,52.9,27.98,South,186,0.0,0.0,65,0.00,,---,0.00,VWS V14.01,2013-10-09 22:43:00,
2013-10-09 17:48:00,64.5,52.9,27.98,South,182,0.0,1.0,66,0.00,,---,0.00,VWS V14.01,2013-10-09 22:48:00,
2013-10-09 17:53:00,64.2,52.6,27.98,South,182,0.0,1.0,66,0.00,,---,0.00,VWS V14.01,2013-10-09 22:53:00,
2013-10-09 17:58:00,63.8,52.7,27.98,South,182,0.0,0.0,67,0.00,,---,0.00,VWS V14.01,2013-10-09 22:58:00,
2013-10-09 18:03:00,63.4,52.7,27.98,South,181,0.0,1.0,68,0.00,,---,0.00,VWS V14.01,2013-10-09 23:03:00,
2013-10-09 18:08:00,63.0,52.7,27.98,South,181,0.0,1.0,69,0.00,,---,0.00,VWS V14.01,2013-10-09 23:08:00,
2013-10-09 18:14:00,62.6,52.7,27.98,South,186,0.0,1.0,70,0.00,,---,0.00,VWS V14.01,2013-10-09 23:14:00,
2013-10-09 18:19:00,62.2,52.3,27.99,SSW,192,0.0,0.0,70,0.00,,---,0.00,VWS V14.01,2013-10-09 23:19:00,
2013-10-09 18:24:00,61.8,52.3,27.99,SSW,192,0.0,0.0,71,0.00,,---,0.00,VWS V14.01,2013-10-09 23:24:00,
2013-10-09 18:29:00,61.3,52.2,27.99,SSW,197,0.0,1.0,72,0.00,,---,0.00,VWS V14.01,2013-10-09 23:29:00,
2013-10-09 18:34:00,60.8,52.1,28.00,SSW,197,0.0,1.0,73,0.00,,---,0.00,VWS V14.01,2013-10-09 23:34:00,
2013-10-09 18:40:00,60.5,51.8,28.00,SSW,196,0.0,0.0,73,0.00,,---,0.00,VWS V14.01,2013-10-09 23:40:00,
2013-10-09 18:45:00,60.2,51.9,28.00,SSW,197,0.0,0.0,74,0.00,,---,0.00,VWS V14.01,2013-10-09 23:45:00,
2013-10-09 18:50:00,59.8,51.5,28.00,SSW,194,0.0,0.0,74,0.00,,---,0.00,VWS V14.01,2013-10-09 23:50:00,
2013-10-09 18:55:00,59.5,51.6,28.00,SSW,194,0.0,1.0,75,0.00,,---,0.00,VWS V14.01,2013-10-09 23:55:00,
2013-10-09 19:00:00,59.0,51.5,28.00,SSW,195,0.0,2.0,76,0.00,,---,0.00,VWS V14.01,2013-10-10 00:00:00,
2013-10-09 19:06:00,59.0,51.5,28.00,SSW,194,0.0,0.0,76,0.00,,---,0.00,VWS V14.01,2013-10-10 00:06:00,
2013-10-09 19:11:00,58.8,51.6,28.00,SSW,202,0.0,0.0,77,0.00,,---,0.00,VWS V14.01,2013-10-10 00:11:00,
2013-10-09 19:16:00,58.4,51.2,28.00,SSE,160,1.0,5.0,77,0.00,,---,0.00,VWS V14.01,2013-10-10 00:16:00,
2013-10-09 19:21:00,58.0,51.2,28.01,SSW,198,0.0,0.0,78,0.00,,---,0.00,VWS V14.01,2013-10-10 00:21:00,
2013-10-09 19:26:00,57.9,51.1,28.01,SSW,197,0.0,0.0,78,0.00,,---,0.00,VWS V14.01,2013-10-10 00:26:00,
2013-10-09 19:32:00,57.8,51.3,28.01,SSW,197,0.0,0.0,79,0.00,,---,0.00,VWS V14.01,2013-10-10 00:32:00,
2013-10-09 19:37:00,57.8,51.3,28.01,SSW,198,0.0,0.0,79,0.00,,---,0.00,VWS V14.01,2013-10-10 00:37:00,
2013-10-09 19:42:00,57.6,51.1,28.01,SSW,198,0.0,0.0,79,0.00,,---,0.00,VWS V14.01,2013-10-10 00:42:00,
2013-10-09 19:47:00,57.4,51.0,28.01,SSW,198,0.0,0.0,79,0.00,,---,0.00,VWS V14.01,2013-10-10 00:47:00,
2013-10-09 19:52:00,57.1,51.0,28.01,SSW,198,0.0,0.0,80,0.00,,---,0.00,VWS V14.01,2013-10-10 00:52:00,
2013-10-09 19:57:00,56.8,51.0,28.01,SSW,198,0.0,0.0,81,0.00,,---,0.00,VWS V14.01,2013-10-10 00:57:00,
2013-10-09 20:02:00,56.5,50.8,28.01,SSW,198,0.0,0.0,81,0.00,,---,0.00,VWS V14.01,2013-10-10 01:02:00,
2013-10-09 20:07:00,56.5,50.8,28.01,SSW,198,0.0,0.0,81,0.00,,---,0.00,VWS V14.01,2013-10-10 01:07:00,
2013-10-09 20:12:00,56.6,50.8,28.01,SSW,198,0.0,0.0,81,0.00,,---,0.00,VWS V14.01,2013-10-10 01:12:00,
2013-10-09 20:18:00,56.5,50.8,28.01,SSW,198,0.0,0.0,81,0.00,,---,0.00,VWS V14.01,2013-10-10 01:18:00,
2013-10-09 20:23:00,56.3,50.5,28.01,SSW,198,0.0,0.0,81,0.00,,---,0.00,VWS V14.01,2013-10-10 01:23:00,
2013-10-09 20:28:00,56.0,50.3,28.01,SSW,198,0.0,0.0,81,0.00,,---,0.00,VWS V14.01,2013-10-10 01:28:00,
2013-10-09 20:33:00,55.7,50.3,28.01,SSW,198,0.0,0.0,82,0.00,,---,0.00,VWS V14.01,2013-10-10 01:33:00,
2013-10-09 20:38:00,55.7,50.3,28.01,SSW,198,0.0,0.0,82,0.00,,---,0.00,VWS V14.01,2013-10-10 01:38:00,
2013-10-09 20:43:00,55.7,50.3,28.01,SSW,198,0.0,0.0,82,0.00,,---,0.00,VWS V14.01,2013-10-10 01:43:00,
2013-10-09 20:48:00,55.6,50.5,28.02,SSW,198,0.0,0.0,83,0.00,,---,0.00,VWS V14.01,2013-10-10 01:48:00,
2013-10-09 20:53:00,55.6,50.2,28.02,SSW,198,0.0,0.0,82,0.00,,---,0.00,VWS V14.01,2013-10-10 01:53:00,
2013-10-09 20:59:00,55.6,50.2,28.02,SSW,198,0.0,0.0,82,0.00,,---,0.00,VWS V14.01,2013-10-10 01:59:00,
2013-10-09 21:04:00,55.3,50.2,28.02,SSW,198,0.0,0.0,83,0.00,,---,0.00,VWS V14.01,2013-10-10 02:04:00,
2013-10-09 21:09:00,54.9,49.8,28.02,SSW,198,0.0,0.0,83,0.00,,---,0.00,VWS V14.01,2013-10-10 02:09:00,
2013-10-09 21:14:00,54.6,49.9,28.02,SSW,198,0.0,0.0,84,0.00,,---,0.00,VWS V14.01,2013-10-10 02:14:00,
2013-10-09 21:19:00,54.4,49.7,28.03,SSW,198,0.0,0.0,84,0.00,,---,0.00,VWS V14.01,2013-10-10 02:19:00,
2013-10-09 21:25:00,54.1,49.7,28.03,SSW,198,0.0,0.0,85,0.00,,---,0.00,VWS V14.01,2013-10-10 02:25:00,
2013-10-09 21:30:00,53.8,49.4,28.03,SSW,198,0.0,0.0,85,0.00,,---,0.00,VWS V14.01,2013-10-10 02:30:00,
2013-10-09 21:35:00,53.5,49.4,28.03,SSW,198,0.0,0.0,86,0.00,,---,0.00,VWS V14.01,2013-10-10 02:35:00,
2013-10-09 21:41:00,53.4,49.3,28.03,SSW,198,0.0,0.0,86,0.00,,---,0.00,VWS V14.01,2013-10-10 02:41:00,
2013-10-09 21:46:00,53.2,49.4,28.03,SSW,198,0.0,0.0,87,0.00,,---,0.00,VWS V14.01,2013-10-10 02:46:00,
2013-10-09 21:51:00,52.9,49.1,28.03,SSW,198,0.0,0.0,87,0.00,,---,0.00,VWS V14.01,2013-10-10 02:51:00,
2013-10-09 21:56:00,52.5,48.8,28.03,SSW,198,0.0,0.0,87,0.00,,---,0.00,VWS V14.01,2013-10-10 02:56:00,
2013-10-09 22:01:00,52.1,48.7,28.03,SSW,198,0.0,0.0,88,0.00,,---,0.00,VWS V14.01,2013-10-10 03:01:00,
2013-10-09 22:06:00,51.6,48.2,28.03,SSW,198,0.0,0.0,88,0.00,,---,0.00,VWS V14.01,2013-10-10 03:06:00,
2013-10-09 22:11:00,51.2,48.1,28.03,SSW,198,0.0,0.0,89,0.00,,---,0.00,VWS V14.01,2013-10-10 03:11:00,
2013-10-09 22:17:00,50.9,47.8,28.03,SSW,198,0.0,0.0,89,0.00,,---,0.00,VWS V14.01,2013-10-10 03:17:00,
2013-10-09 22:22:00,50.7,47.9,28.03,SSW,198,0.0,0.0,90,0.00,,---,0.00,VWS V14.01,2013-10-10 03:22:00,
2013-10-09 22:27:00,50.7,48.2,28.03,SSW,198,0.0,0.0,91,0.00,,---,0.00,VWS V14.01,2013-10-10 03:27:00,
2013-10-09 22:32:00,50.6,48.1,28.03,SSW,198,0.0,0.0,91,0.00,,---,0.00,VWS V14.01,2013-10-10 03:32:00,
2013-10-09 22:37:00,50.5,48.0,28.03,SSW,198,0.0,0.0,91,0.00,,---,0.00,VWS V14.01,2013-10-10 03:37:00,
2013-10-09 22:42:00,50.4,47.9,28.03,SSW,198,0.0,0.0,91,0.00,,---,0.00,VWS V14.01,2013-10-10 03:42:00,
2013-10-09 22:47:00,50.2,47.7,28.03,SSW,198,0.0,0.0,91,0.00,,---,0.00,VWS V14.01,2013-10-10 03:47:00,
2013-10-09 22:53:00,50.1,47.9,28.03,SSW,198,0.0,0.0,92,0.00,,---,0.00,VWS V14.01,2013-10-10 03:53:00,
2013-10-09 22:58:00,50.0,47.8,28.03,SSW,198,0.0,0.0,92,0.00,,---,0.00,VWS V14.01,2013-10-10 03:58:00,
2013-10-09 23:01:00,49.9,47.7,28.03,SSW,198,0.0,0.0,92,0.00,,---,0.00,VWS V14.01,2013-10-10 04:01:00,
2013-10-09 23:02:00,49.8,47.3,28.03,SSW,198,0.0,0.0,91,0.00,,---,0.00,VWS V14.01,2013-10-10 04:02:00,
2013-10-09 23:03:00,49.7,47.2,28.03,SSW,198,0.0,0.0,91,0.00,,---,0.00,VWS V14.01,2013-10-10 04:03:00,
2013-10-09 23:09:00,49.5,47.3,28.03,SSW,198,0.0,0.0,92,0.00,,---,0.00,VWS V14.01,2013-10-10 04:09:00,
2013-10-09 23:14:00,49.7,47.8,28.03,SSW,198,0.0,0.0,93,0.00,,---,0.00,VWS V14.01,2013-10-10 04:14:00,
2013-10-09 23:19:00,50.0,48.1,28.03,SSW,198,0.0,0.0,93,0.00,,---,0.00,VWS V14.01,2013-10-10 04:19:00,
2013-10-09 23:25:00,50.4,48.7,28.03,SSW,198,0.0,0.0,94,0.00,,---,0.00,VWS V14.01,2013-10-10 04:25:00,
2013-10-09 23:30:00,50.7,48.8,28.03,SSW,198,0.0,0.0,93,0.00,,---,0.00,VWS V14.01,2013-10-10 04:30:00,
2013-10-09 23:35:00,51.1,49.2,28.03,SSW,198,0.0,0.0,93,0.00,,---,0.00,VWS V14.01,2013-10-10 04:35:00,
2013-10-09 23:40:00,51.5,49.5,28.03,SSW,198,0.0,0.0,93,0.00,,---,0.00,VWS V14.01,2013-10-10 04:40:00,
2013-10-09 23:45:00,51.7,49.5,28.03,SSW,198,0.0,1.0,92,0.00,,---,0.00,VWS V14.01,2013-10-10 04:45:00,
2013-10-09 23:50:00,51.9,49.4,28.03,SSW,198,0.0,0.0,91,0.00,,---,0.00,VWS V14.01,2013-10-10 04:50:00,
2013-10-09 23:55:00,52.0,49.5,28.03,SSW,198,0.0,0.0,91,0.00,,---,0.00,VWS V14.01,2013-10-10 04:55:00,